Wind_Speed
38 38 37 37 36 36 36 36 37 36 35 35 34 33 32 31 29 28 29 30 30 30 31 32 32 34 36 36 35 34 34 36 38 39 41 41 42 43 43 43 43 45 46 47 47 47 46 45 45 47 48 48 48 48 48 48 49 49 49 49 49 50 50 50 51 51 51 52 52 53 53 54 55 56 57 58 59 59 60 61 62 62 63 63 63 64 64 65
37 36 36 35 35 35 36 36 36 36 34 34 34 32 31 30 28 28 29 30 30 30 31 33 34 35 36 36 36 36 35 37 40 41 41 42 42 42 42 42 43 44 46 47 47 47 46 46 47 47 49 49 49 49 50 50 51 51 51 51 51 52 52 53 54 54 55 55 56 56 56 57 58 59 60 61 62 63 63 64 65 65 66 66 66 67 67 68
35 35 34 34 34 35 35 36 36 35 34 34 33 31 30 29 28 28 29 30 31 31 32 33 34 35 36 36 37 37 37 38 39 40 40 40 40 39 39 40 42 44 46 47 47 47 46 46 46 47 48 49 49 48 49 50 52 52 53 53 52 52 53 53 55 56 57 58 59 59 60 60 61 62 62 64 64 65 66 67 67 68 69 69 69 70 70 71
34 34 33 34 34 34 35 35 35 34 34 33 32 30 29 28 28 28 29 30 31 31 32 32 33 34 34 35 37 38 38 38 39 41 40 39 40 40 40 41 43 46 47 47 47 46 46 45 47 48 48 48 49 49 49 50 51 52 53 54 55 55 55 55 57 58 59 60 61 62 63 64 64 65 65 66 66 67 68 69 70 71 71 72 72 73 73 74
33 33 33 34 33 34 34 34 34 34 34 32 31 29 28 28 28 29 29 30 31 32 32 32 32 33 33 34 35 36 36 36 37 39 39 39 40 42 42 42 43 45 46 45 44 45 45 46 47 48 48 48 49 50 51 52 53 55 56 57 58 58 59 60 61 62 63 64 65 65 66 67 68 69 69 69 69 70 71 72 73 73 74 75 76 76 77 77
33 33 33 33 33 34 34 33 33 33 32 30 29 28 28 28 28 28 29 30 30 31 32 32 32 32 33 33 33 34 33 33 36 38 38 38 38 40 41 42 43 43 43 43 42 42 44 45 47 48 49 51 53 54 56 58 60 61 62 62 62 63 64 65 66 66 66 66 68 68 69 69 70 71 72 72 73 74 75 75 76 76 77 78 79 80 80 81
33 33 33 32 32 33 33 32 32 31 30 28 28 27 27 28 28 28 29 29 29 30 31 32 33 34 34 34 34 34 34 35 37 39 41 41 41 42 42 43 44 44 45 46 45 45 46 48 51 53 54 57 59 60 62 64 65 66 67 67 67 67 68 69 68 67 66 65 66 66 66 66 67 67 69 70 71 72 73 74 75 76 77 78 79 79 80 81
34 33 32 31 32 32 32 32 31 29 28 27 27 27 27 27 28 28 29 29 29 29 30 31 32 34 36 37 36 37 37 39 40 42 43 45 45 46 46 46 47 48 48 50 51 52 54 56 57 59 60 62 64 66 66 66 66 67 67 68 68 69 69 69 67 66 65 65 64 65 65 66 66 67 68 70 71 71 72 73 74 75 76 77 78 80 81 82
33 31 30 31 31 31 31 30 29 28 27 26 26 26 26 27 28 28 28 29 29 30 30 31 32 34 37 39 40 41 42 43 45 46 47 48 49 50 51 53 53 53 53 55 57 58 61 62 62 63 64 66 67 68 67 66 66 66 66 66 67 68 68 67 67 67 67 67 68 68 69 70 71 72 74 76 76 76 77 78 79 80 82 83 84 85 86 87
31 30 30 31 30 30 29 28 27 27 26 25 25 25 26 26 27 27 28 29 29 30 30 31 32 33 36 39 42 45 46 47 48 49 51 52 54 55 57 59 59 59 59 60 61 63 65 66 66 66 67 68 68 67 66 65 65 66 66 67 67 68 68 68 69 70 71 72 73 74 75 77 78 79 81 83 83 83 84 85 86 87 88 89 89 90 90 91
29 29 30 31 30 29 27 26 26 25 25 25 25 25 25 25 26 27 27 28 29 29 30 31 32 33 35 37 40 44 47 50 51 52 53 54 56 57 59 61 62 63 63 64 65 66 68 68 68 68 68 68 68 68 68 67 67 68 69 70 71 72 73 74 76 77 78 80 81 82 82 82 83 83 85 86 86 85 86 87 88 88 88 89 89 89 89 90
28 29 30 30 29 27 25 25 25 24 24 24 24 24 24 25 25 26 26 27 28 28 29 30 31 33 34 36 38 41 45 48 52 54 55 55 56 57 58 59 61 62 63 64 65 66 66 67 67 68 68 69 70 70 71 72 73 74 75 76 76 77 78 79 80 80 81 81 81 81 79 79 79 80 82 82 81 81 82 82 83 83 83 84 84 85 85 86
29 30 29 28 26 25 24 23 23 23 23 23 23 23 24 24 24 25 25 26 27 27 28 29 31 32 34 35 37 39 41 44 48 52 55 57 58 59 60 61 62 63 64 65 66 67 68 69 70 71 72 73 73 74 74 75 75 75 75 74 74 74 73 75 75 74 74 74 74 73 72 73 74 76 78 77 76 77 78 79 79 80 81 81 81 82 83 83
29 29 28 26 24 23 22 22 22 23 22 22 22 23 23 23 23 24 25 25 26 27 28 29 30 32 33 34 36 37 39 41 44 47 50 53 56 58 60 62 63 64 65 66 68 69 70 70 71 71 71 71 71 70 69 69 68 68 68 67 68 68 67 69 70 69 70 71 72 72 71 72 73 76 77 76 76 77 77 78 78 78 79 79 79 80 80 80
29 28 26 24 22 22 21 22 22 22 21 21 22 22 22 22 23 24 24 25 26 27 28 29 30 32 33 34 35 36 38 39 41 43 45 47 50 52 54 56 57 59 60 61 62 63 64 64 64 64 64 64 64 63 63 64 64 66 66 65 67 67 66 68 70 70 71 72 72 72 71 72 73 74 75 73 73 74 74 74 74 74 74 75 75 76 76 77
27 26 23 22 21 21 21 21 21 21 20 21 22 21 21 22 23 24 25 26 27 28 29 30 31 32 33 34 34 36 36 37 39 40 42 44 45 47 49 50 51 52 54 55 56 57 58 58 59 59 60 61 61 62 63 63 64 66 66 66 67 69 68 68 70 70 70 69 70 69 67 68 68 68 69 68 68 68 69 69 69 69 70 71 71 72 73 73
25 23 21 21 21 20 20 20 20 20 20 21 21 21 22 23 24 25 26 27 28 28 29 30 30 31 32 33 34 34 35 36 38 39 40 42 43 45 46 48 49 50 52 53 54 55 56 57 58 59 60 61 62 62 63 63 65 66 67 66 66 67 66 65 65 66 65 64 63 63 62 63 63 62 63 63 63 64 65 65 65 66 67 67 68 69 70 70
22 21 21 21 20 20 19 19 19 20 20 21 21 21 22 23 24 25 26 28 28 29 29 30 30 31 32 33 33 34 36 37 38 39 41 42 44 46 47 49 50 51 52 53 54 55 56 57 58 59 60 61 61 62 62 62 63 62 63 63 61 61 61 59 59 59 59 57 58 58 57 59 60 59 58 59 59 61 62 62 63 64 65 66 67 68 69 69
20 20 20 20 19 18 18 18 19 20 20 21 21 22 23 24 25 26 27 28 28 29 29 30 31 31 33 34 35 36 37 39 40 42 43 44 45 47 48 50 51 52 53 53 54 55 56 57 58 58 59 59 59 58 58 57 57 56 56 56 55 55 54 55 54 53 53 53 54 54 53 56 59 57 55 58 59 60 61 62 63 64 65 66 67 68 69 70
20 20 19 19 18 17 18 19 19 20 20 21 22 22 24 25 26 27 28 28 28 29 30 31 32 33 35 36 37 39 40 42 43 44 45 46 46 47 48 49 50 51 52 53 54 54 54 55 55 54 53 53 53 52 52 51 51 50 50 50 50 50 49 50 50 50 50 49 51 52 51 55 58 55 54 56 59 60 61 62 63 64 65 66 67 68 69 70
19 19 18 17 17 17 18 19 19 19 20 21 22 23 24 26 27 27 28 28 29 30 31 32 34 35 37 38 40 42 43 45 45 46 47 47 47 47 48 48 49 50 51 52 52 51 51 50 49 48 48 48 47 47 47 47 46 46 46 46 46 47 46 47 47 47 48 48 49 50 52 56 56 54 54 55 59 60 60 61 61 62 62 63 64 65 65 65
19 18 17 16 16 17 18 18 19 19 20 21 23 24 25 26 27 28 28 29 30 31 33 34 36 38 40 41 43 44 45 46 47 47 47 47 47 47 47 48 48 49 49 48 47 46 46 45 45 45 44 44 44 44 43 43 44 43 44 43 44 44 44 45 45 46 47 48 49 50 53 55 52 50 52 53 56 57 56 56 56 56 56 56 57 57 57 57
18 17 16 16 16 16 17 18 18 20 21 22 23 25 26 27 27 28 29 30 32 33 34 37 38 40 42 44 45 46 46 47 47 47 47 47 47 47 47 47 47 46 45 43 42 42 42 42 42 42 41 41 41 41 41 41 41 41 42 41 42 42 43 44 45 46 47 47 48 49 52 52 48 46 48 50 51 51 50 49 48 48 48 48 49 49 49 49
16 16 15 15 15 16 17 18 19 21 22 23 24 25 26 27 27 29 30 32 33 35 37 39 41 42 44 45 46 46 46 46 46 46 46 46 47 47 47 46 44 42 40 40 40 40 40 40 39 39 39 39 39 39 39 39 40 40 40 40 41 42 43 44 45 46 46 46 45 47 50 48 43 42 42 43 45 44 43 42 40 41 41 42 42 41 41 42
16 15 15 15 15 16 17 19 21 22 22 23 25 26 26 27 28 30 32 33 35 37 39 41 42 43 44 45 45 45 45 45 45 45 46 46 46 46 45 43 40 39 38 38 38 38 38 37 37 37 37 38 38 38 38 38 38 38 39 40 40 41 42 43 44 44 43 43 42 42 45 44 39 36 36 36 38 39 38 37 36 37 37 36 36 36 36 36
15 15 15 15 16 17 19 20 21 22 23 24 25 26 26 28 29 31 33 35 37 39 41 42 43 44 44 44 44 44 44 45 45 45 46 45 45 43 41 39 37 37 37 36 36 36 36 36 36 36 36 36 36 36 36 36 36 37 38 39 40 40 41 41 42 42 40 40 39 37 39 41 37 32 30 30 31 34 36 36 37 36 36 35 34 34 34 34
16 15 16 17 17 18 20 20 21 22 23 24 25 26 27 29 30 32 34 37 39 41 42 43 43 43 43 43 44 44 44 45 45 45 45 43 42 39 38 36 36 36 35 35 35 35 34 34 34 35 35 35 35 35 35 35 36 37 38 38 39 39 40 39 39 39 39 37 36 35 33 36 37 31 27 28 27 30 33 35 37 37 37 37 37 37 37 36
15 16 16 17 18 19 20 20 21 23 23 24 25 26 28 30 32 34 36 38 40 41 41 42 42 42 43 43 44 44 44 44 44 44 42 41 39 37 36 35 35 35 34 33 33 33 33 34 34 34 34 34 34 35 35 35 36 36 37 38 38 38 38 38 37 37 38 37 35 34 32 33 37 32 27 27 26 27 31 32 34 36 37 39 40 41 41 40
15 16 17 17 18 19 20 21 22 22 23 24 25 27 29 31 34 36 38 39 40 41 41 41 41 42 43 43 43 43 43 43 43 41 40 37 36 35 35 35 35 34 34 33 33 33 33 33 34 34 34 34 34 35 35 35 36 36 37 37 37 37 37 37 37 37 38 38 36 35 32 32 36 33 28 27 26 27 31 31 32 34 35 38 41 43 44 43
16 17 17 18 19 19 20 21 22 22 23 24 26 28 31 33 36 37 38 39 40 40 40 41 41 42 42 42 43 43 42 41 40 38 37 35 35 35 35 35 34 34 33 33 33 33 33 33 34 34 34 34 35 35 35 36 36 36 36 37 37 37 37 38 38 38 39 40 40 39 36 35 37 36 31 28 28 29 32 33 33 34 36 38 41 44 45 45
17 17 18 18 18 19 20 21 21 22 23 25 27 30 33 35 36 37 38 39 39 39 40 40 41 41 41 41 41 41 40 39 37 36 35 34 34 34 34 34 34 33 33 33 33 33 34 34 34 34 34 35 35 35 36 36 37 36 36 36 36 36 37 38 39 40 40 42 43 42 42 41 41 40 37 34 32 32 34 35 36 36 38 40 42 44 46 47
17 17 18 18 18 19 20 20 21 22 24 26 29 32 34 35 36 37 38 38 39 39 39 40 40 40 40 40 40 40 39 37 36 35 34 34 34 34 34 34 34 34 33 33 33 34 34 35 34 34 35 35 36 36 37 38 38 37 37 36 35 35 35 37 38 40 41 43 45 45 45 46 45 44 42 42 40 38 38 38 39 41 42 44 45 46 48 50
17 17 17 18 19 19 19 20 21 23 25 28 31 33 34 35 37 38 38 39 39 39 39 39 39 40 40 40 40 39 38 37 36 35 34 34 34 34 35 35 35 34 34 34 34 34 35 36 35 35 36 36 36 37 38 39 40 39 38 37 36 35 35 36 38 38 40 44 47 48 47 48 49 46 45 47 46 44 43 43 43 45 47 48 49 49 50 52
17 17 17 18 18 18 19 20 22 24 27 30 32 33 34 36 37 38 38 39 39 39 38 38 39 40 40 41 41 40 39 38 36 35 35 35 34 35 35 35 35 35 35 35 35 35 35 36 37 37 37 37 38 38 39 40 41 41 40 39 38 38 36 36 37 38 39 42 48 51 51 51 51 48 46 47 49 49 48 48 48 49 51 51 51 52 53 54
16 16 17 17 17 18 19 21 23 26 29 31 32 34 35 36 37 38 38 39 39 38 38 39 39 40 41 41 41 41 40 39 37 36 36 35 35 35 35 35 35 35 35 36 36 36 36 37 38 38 38 39 40 40 40 41 43 44 44 43 41 41 40 39 39 39 39 40 45 53 56 57 57 51 48 49 50 51 52 51 51 53 54 54 54 54 55 56
15 16 17 16 17 18 19 22 25 28 30 31 33 34 35 36 37 38 39 39 38 38 38 39 39 40 41 42 42 42 41 40 39 37 37 36 35 35 35 35 35 35 35 36 37 37 37 38 39 39 40 40 41 42 43 43 44 45 46 46 44 43 43 42 41 41 41 39 43 50 56 62 63 57 52 52 51 52 55 54 54 57 58 58 57 57 58 59
15 16 16 16 17 18 21 24 27 29 30 32 33 34 36 37 38 38 39 39 38 39 39 39 40 40 41 42 42 42 42 41 40 38 38 37 36 36 36 35 35 35 36 36 37 37 38 39 40 40 42 42 42 44 45 45 45 47 48 49 48 46 47 47 44 43 43 41 42 47 53 63 69 64 58 56 54 54 57 57 58 60 62 61 60 60 60 61
15 15 15 16 17 19 23 26 28 30 31 32 34 35 36 37 38 39 39 39 39 39 39 39 40 40 41 42 42 42 41 41 40 39 38 38 37 37 37 37 37 37 37 37 37 38 38 40 41 41 42 43 43 44 46 47 47 48 50 51 51 49 49 49 48 47 46 43 42 44 49 62 72 70 65 61 57 56 57 58 59 62 64 64 62 62 62 62
14 14 15 16 18 21 25 27 29 30 31 33 34 35 36 37 38 38 38 39 39 39 39 39 40 41 41 42 42 41 41 40 39 38 38 38 37 37 38 38 38 39 39 38 39 39 39 39 41 42 43 44 44 45 46 48 49 50 51 53 53 52 51 50 50 50 49 46 45 43 44 58 72 73 69 65 62 60 57 57 60 63 66 66 65 64 64 64
14 14 15 17 20 23 26 28 29 30 32 34 35 36 36 38 38 38 38 38 39 39 39 39 40 41 41 42 41 41 40 39 38 37 36 36 37 37 37 38 39 40 40 40 40 41 40 40 41 43 44 44 44 45 46 47 49 51 52 53 54 54 53 51 51 52 52 49 48 43 39 54 73 75 71 67 66 64 60 58 62 65 67 67 66 66 65 65
13 14 16 18 21 24 27 28 29 31 33 35 36 36 37 38 38 38 38 38 39 39 39 39 40 41 41 41 41 41 40 39 38 37 36 35 35 35 36 37 38 39 40 41 41 41 41 41 41 43 44 45 44 45 46 46 48 50 52 52 53 53 53 51 49 51 52 51 51 44 36 48 70 75 70 68 69 66 62 61 64 67 68 68 67 67 66 66
14 15 17 20 23 25 28 29 30 32 34 35 36 37 38 38 39 39 38 39 39 39 39 39 40 41 41 41 41 41 41 40 39 38 37 36 35 35 35 35 36 37 39 40 41 41 42 41 41 43 45 46 46 45 47 48 49 51 53 54 53 52 52 51 48 47 48 50 53 46 36 44 64 71 68 69 70 67 63 63 66 67 68 68 67 67 67 67
15 16 19 21 24 26 29 30 31 33 35 36 37 37 38 39 39 39 39 38 38 38 39 39 40 41 41 41 41 41 41 40 40 39 38 38 37 37 36 36 36 36 36 38 39 40 41 41 40 41 43 46 46 46 47 48 50 52 54 56 56 54 53 53 51 48 47 49 52 47 40 45 58 64 65 68 69 66 64 64 66 67 67 68 68 67 67 68
16 18 20 22 25 28 30 31 32 34 36 37 38 38 39 39 39 39 39 39 39 38 39 39 40 41 41 41 40 41 41 40 40 40 39 39 38 38 38 37 37 36 36 36 37 37 39 40 39 39 41 43 44 45 46 46 48 51 54 56 57 56 54 54 53 51 48 49 50 50 47 47 53 60 63 65 64 62 63 65 66 66 67 67 67 68 68 69
17 19 22 24 26 29 31 32 33 35 37 38 39 39 39 40 40 39 39 39 39 39 39 39 40 41 41 40 40 40 41 41 40 40 40 39 39 39 39 38 37 37 36 36 36 36 37 39 38 37 40 42 42 43 44 44 46 48 52 55 56 56 55 54 53 52 51 48 47 52 54 48 50 60 64 61 59 59 61 64 65 66 67 68 68 68 69 70
19 21 23 25 27 30 32 33 34 36 37 39 39 39 40 40 40 40 39 39 39 39 39 39 40 41 41 40 40 40 41 42 41 41 40 40 40 40 40 39 38 37 37 35 34 34 35 38 38 37 39 42 42 43 43 43 45 48 51 55 56 55 55 54 53 54 53 47 42 50 56 47 45 58 63 59 58 58 60 63 65 67 70 71 71 70 71 72
20 22 24 26 29 31 33 34 35 36 38 40 40 40 40 41 41 40 40 40 39 39 40 40 40 41 41 41 40 40 41 42 42 42 41 41 41 41 41 41 40 39 39 37 35 33 33 36 37 36 38 40 42 43 42 42 43 46 51 55 55 55 56 54 53 54 54 48 41 46 54 49 47 55 59 58 58 59 61 64 66 69 73 74 74 74 74 75
22 23 25 28 30 33 34 35 36 37 39 40 41 41 41 41 41 41 41 41 40 40 40 41 41 42 42 42 41 41 41 43 44 43 43 43 43 43 43 44 43 43 42 41 39 35 33 35 36 35 36 40 42 42 42 41 40 44 51 56 57 56 56 55 55 56 57 52 47 47 51 51 54 57 57 58 62 62 63 66 68 71 75 77 77 77 77 78
23 25 27 29 32 34 36 36 37 38 40 41 41 41 41 42 42 41 41 42 42 41 41 42 42 43 44 44 43 42 42 43 44 45 45 45 46 46 46 46 46 46 46 46 45 42 37 36 37 35 35 41 44 42 42 41 39 43 51 57 59 60 59 58 57 59 61 58 55 53 51 52 59 62 60 61 66 67 67 69 71 74 78 80 80 79 80 81
25 26 28 31 33 36 37 38 38 39 40 41 42 42 42 42 42 42 42 42 43 43 43 43 43 44 45 45 45 45 44 44 45 46 46 47 48 48 48 48 49 48 49 49 48 48 44 41 41 38 35 39 45 44 44 42 40 43 50 56 60 62 62 61 60 62 65 64 61 59 56 54 59 64 64 66 69 71 71 73 74 78 83 84 82 81 83 84
26 28 29 32 35 37 38 39 39 40 41 42 42 42 43 43 43 43 43 44 44 44 44 44 44 45 46 47 48 47 47 46 47 48 49 49 50 51 51 51 52 52 52 52 52 53 51 47 46 44 39 40 45 46 46 44 42 46 51 55 60 65 65 64 63 65 68 68 67 65 63 62 63 65 66 68 71 72 73 75 77 80 85 87 85 83 84 86
28 29 31 34 36 38 39 40 40 41 42 43 43 43 43 44 44 44 44 45 46 46 46 46 45 46 47 48 49 50 50 49 50 51 52 52 53 54 54 54 55 55 56 56 56 57 56 54 52 50 45 44 47 50 48 45 45 50 55 57 61 66 67 66 66 68 70 72 72 71 69 69 70 69 70 71 73 74 75 77 79 82 86 87 86 86 86 87
Wind_Direction
238 241 243 246 249 252 256 259 262 265 266 266 266 266 267 266 264 260 257 255 253 251 248 247 246 246 249 253 256 257 255 255 256 256 257 257 257 259 260 260 261 262 262 262 262 262 262 263 265 266 266 265 265 264 263 263 262 262 261 261 262 263 263 263 263 262 262 262 262 262 262 263 263 264 266 267 267 268 268 269 269 269 269 269 268 268 268 267
238 241 244 247 251 255 259 262 265 265 266 267 267 267 267 267 264 260 257 255 253 251 250 249 248 248 251 253 255 256 254 253 254 255 257 258 258 259 261 261 263 265 264 263 264 265 265 265 266 267 267 267 267 266 266 265 264 264 264 264 265 265 266 266 266 265 265 264 264 263 263 263 262 262 263 263 264 265 265 266 266 267 267 267 267 267 267 267
239 242 246 250 254 258 262 266 267 267 267 267 268 268 268 266 263 260 257 256 255 253 251 250 250 251 253 254 255 256 255 254 255 256 257 259 261 263 264 264 265 266 266 264 263 265 268 269 269 269 269 268 268 268 268 267 266 266 266 265 265 266 266 267 267 266 266 265 264 264 264 264 264 264 264 263 263 263 264 264 264 264 265 265 265 265 265 265
240 244 248 252 256 260 264 267 268 268 268 268 269 269 267 265 262 259 257 257 257 256 254 252 253 253 254 254 255 256 257 256 256 257 258 259 261 264 264 265 266 266 267 266 264 265 268 269 269 270 271 270 269 270 270 270 270 269 268 268 267 266 266 267 267 266 265 265 265 264 264 264 263 263 263 263 263 263 263 263 264 264 264 264 264 265 265 265
242 246 250 254 257 262 264 265 266 267 268 269 270 269 267 264 262 260 259 257 257 257 257 256 255 254 255 256 256 257 260 259 257 258 260 259 259 260 263 266 268 269 269 267 264 266 269 270 271 273 275 274 274 274 274 274 274 274 273 271 270 269 269 270 271 270 269 268 267 267 267 266 265 264 263 263 263 263 263 263 263 263 264 264 264 264 264 264
244 248 252 255 260 262 262 263 264 265 268 270 270 269 267 265 263 262 262 261 260 259 260 259 257 255 253 253 255 258 262 264 262 263 264 264 262 262 265 269 272 274 273 270 267 268 270 271 272 274 275 275 274 274 275 275 275 275 275 274 273 272 272 273 273 273 273 271 270 269 269 269 268 267 266 266 265 265 265 265 265 265 265 265 265 265 265 265
246 249 253 257 260 261 261 262 262 265 267 268 268 268 267 266 265 263 262 262 261 261 261 260 258 256 254 252 250 251 253 256 259 261 261 261 261 261 262 263 266 270 272 270 269 268 267 267 269 269 269 270 271 272 273 274 274 274 274 274 274 274 274 275 275 275 274 273 271 271 270 270 270 269 269 268 267 267 267 267 267 267 267 267 267 267 268 268
247 251 254 257 257 259 260 261 263 265 266 266 266 266 266 266 266 265 264 263 262 261 260 259 257 255 254 254 252 248 247 248 250 252 253 254 255 256 257 258 259 262 265 266 265 266 267 269 270 270 270 270 271 273 273 274 273 273 273 273 274 274 275 275 276 276 275 275 274 273 273 272 272 272 272 271 270 269 269 269 269 269 269 269 269 269 269 269
248 251 253 254 254 256 258 261 264 265 264 264 264 264 264 265 266 267 267 266 266 264 261 260 258 255 253 252 253 252 251 251 250 250 252 252 254 256 257 260 262 263 263 263 263 264 266 269 270 270 271 271 272 273 274 274 274 273 273 274 274 274 274 275 275 275 275 276 275 275 275 274 274 274 274 273 272 272 272 272 271 272 272 272 272 272 272 271
248 250 250 250 251 253 257 260 262 263 263 263 262 262 263 264 266 267 268 269 268 268 266 263 260 258 255 252 251 251 252 254 255 255 257 257 259 261 262 265 267 267 267 266 266 266 268 269 271 272 272 272 273 274 274 274 274 274 273 273 273 273 273 273 273 274 274 275 275 275 275 276 276 276 275 274 274 274 273 273 273 273 273 273 273 273 272 272
246 246 246 248 250 253 256 258 260 261 262 262 261 262 263 265 267 268 269 270 270 270 269 267 265 262 259 257 254 252 251 252 254 256 259 261 262 264 265 266 267 268 268 268 268 268 269 270 271 272 272 273 273 273 273 273 273 273 273 273 273 273 273 273 274 274 274 275 275 275 275 276 276 275 274 274 274 274 273 273 273 273 273 272 272 272 272 272
240 241 244 247 251 254 256 257 258 259 259 260 262 264 266 267 269 270 271 271 272 272 271 270 269 267 265 263 260 257 255 254 254 255 257 259 260 262 264 265 266 266 267 267 268 269 270 270 271 272 272 273 273 273 274 274 274 274 274 274 274 274 274 275 274 274 275 275 275 274 275 275 274 274 273 273 273 273 273 272 272 272 272 272 272 271 271 271
235 238 242 247 251 253 254 256 258 258 258 260 263 265 267 269 271 272 273 274 274 274 274 273 271 270 269 267 266 264 262 260 258 257 258 259 259 260 262 264 265 266 267 268 269 270 270 271 272 273 274 274 275 275 275 276 276 276 276 276 276 275 275 275 275 275 275 275 275 275 275 275 274 274 274 274 274 274 274 273 273 273 273 272 272 272 272 271
233 237 242 246 249 250 252 254 255 256 258 260 263 266 269 272 274 277 278 279 279 279 277 276 275 274 273 271 271 270 268 267 265 264 264 263 263 264 265 266 267 268 269 271 271 272 272 273 274 275 275 276 276 277 277 277 277 277 277 277 277 276 276 276 276 276 276 276 277 277 276 276 275 275 276 276 276 275 275 275 275 274 274 274 274 273 273 273
233 238 241 244 246 248 250 251 253 255 258 261 265 269 272 275 278 281 282 282 282 281 280 279 279 278 277 275 274 273 272 272 271 270 269 269 269 269 270 271 271 272 272 273 273 274 274 274 275 275 276 276 277 277 277 277 277 277 277 278 277 277 277 277 278 278 277 277 277 277 277 277 276 276 276 277 276 276 276 276 276 276 276 275 275 275 275 275
234 238 240 242 244 246 248 251 255 258 261 264 267 271 274 278 281 283 284 284 283 282 282 282 281 280 279 277 276 275 274 274 273 273 273 272 273 273 273 274 274 274 274 275 275 275 275 276 276 276 276 277 277 277 277 278 278 278 278 278 278 279 279 278 279 279 278 278 278 278 278 277 276 277 277 277 277 276 276 276 276 276 276 276 276 276 275 275
234 237 239 241 243 245 249 254 258 261 263 266 269 273 277 280 284 286 286 286 285 285 284 283 282 281 280 279 278 277 277 276 276 276 276 276 277 277 277 277 277 277 277 277 277 278 278 278 278 278 278 278 278 278 279 279 279 279 280 280 279 279 279 279 278 278 278 278 278 278 277 277 276 276 276 276 276 276 276 276 277 276 276 276 276 275 275 275
234 236 239 241 242 245 251 256 259 262 264 267 271 275 280 284 286 288 288 288 288 288 288 287 286 285 284 283 283 283 283 283 282 282 282 282 282 282 282 282 281 281 280 280 280 280 280 280 280 280 280 280 280 280 280 280 279 279 280 280 279 279 279 278 277 277 278 277 277 277 277 277 277 276 276 276 276 276 277 277 277 277 277 277 276 276 276 276
233 236 239 241 244 249 253 257 260 262 265 269 273 278 283 287 289 290 291 292 292 292 292 291 291 290 289 289 289 288 288 288 287 287 286 286 285 285 284 284 284 283 283 282 282 281 281 281 281 280 280 280 280 280 280 279 279 279 278 278 278 278 278 278 277 277 277 278 278 277 278 277 277 277 277 278 278 278 278 278 277 277 278 278 278 278 278 278
233 236 239 243 248 251 255 258 261 263 267 272 277 282 286 290 292 294 295 295 295 295 294 294 293 293 292 292 292 292 292 291 290 290 289 288 287 286 286 285 285 284 284 284 283 282 282 281 281 280 280 280 280 280 279 279 279 279 278 278 278 278 278 278 279 279 278 279 279 279 279 278 278 279 280 281 281 280 279 279 279 280 280 280 280 280 280 280
232 236 241 245 249 253 257 259 262 266 271 276 281 286 290 293 295 296 296 296 296 295 295 295 294 294 294 294 294 294 294 294 293 292 291 290 289 288 287 286 286 285 285 285 285 284 283 282 282 282 281 281 281 281 281 281 280 280 280 280 280 280 280 280 281 281 281 281 281 281 281 279 280 283 284 283 283 282 282 282 282 282 282 282 282 281 281 281
232 237 241 246 252 256 259 262 266 272 276 281 287 291 293 296 297 297 296 296 296 296 296 296 296 296 296 296 296 296 295 295 294 294 293 292 291 290 290 289 288 288 287 286 286 285 284 284 284 283 283 283 282 282 282 282 282 282 282 282 283 283 283 284 283 283 283 284 284 284 283 282 284 287 287 285 284 284 285 285 285 285 284 284 284 284 284 284
233 238 243 248 253 255 260 267 272 276 281 286 290 294 296 298 298 297 296 297 297 297 298 298 298 298 298 298 298 297 296 295 295 294 293 293 292 292 292 291 290 289 288 287 285 285 285 284 284 284 283 283 282 282 283 283 284 285 285 285 285 285 285 286 286 286 286 287 287 287 285 286 288 289 289 288 288 288 289 289 289 289 288 288 288 288 288 288
234 239 244 248 252 257 264 271 275 280 285 290 294 296 298 297 296 296 296 297 298 299 300 300 300 299 299 299 298 297 297 296 296 295 295 295 295 294 294 293 291 290 288 287 286 285 284 284 283 284 284 284 284 285 286 286 287 287 287 287 287 288 288 289 289 289 290 289 290 289 288 289 292 293 293 293 293 294 294 294 294 293 292 292 291 291 291 291
235 240 244 247 252 259 266 272 277 283 289 292 295 297 296 295 295 296 298 299 301 302 302 301 301 300 299 299 298 298 298 298 297 297 297 297 296 296 294 293 291 289 288 287 286 285 285 284 285 285 286 287 287 288 288 288 288 288 288 289 290 291 291 291 291 291 291 292 292 292 293 294 296 297 297 297 297 298 298 298 296 294 292 291 291 292 293 294
236 239 241 245 252 260 267 273 280 287 291 294 295 295 294 294 296 299 301 303 304 304 303 303 302 301 301 301 300 301 300 300 299 298 298 297 296 295 293 291 289 289 288 287 286 286 286 286 287 287 288 288 288 288 288 288 289 290 291 292 293 293 293 293 293 293 293 293 294 294 295 296 297 297 296 297 302 304 303 301 298 295 294 294 295 297 297 298
237 240 242 248 257 264 271 278 285 289 292 294 294 293 294 296 300 302 304 306 305 305 304 304 304 304 304 304 303 303 302 301 300 299 298 298 296 294 292 291 290 289 288 288 287 287 287 287 287 288 288 288 289 289 289 290 291 293 294 295 295 294 294 294 294 294 294 293 293 293 293 296 297 297 296 299 304 305 303 300 298 299 300 301 302 302 302 302
238 242 247 255 263 269 276 282 287 291 293 293 292 294 297 301 304 305 307 307 306 306 306 306 307 307 307 306 305 304 303 302 301 300 299 298 296 294 293 292 291 290 289 288 287 286 287 288 288 289 290 290 290 290 291 292 294 295 296 296 295 294 294 293 293 293 293 292 292 292 294 296 297 299 302 304 306 303 298 296 296 299 303 304 304 304 304 305
238 244 251 259 266 273 280 285 289 291 291 292 294 298 302 305 307 308 308 307 307 308 309 310 310 309 309 308 307 306 305 304 303 302 300 298 296 294 293 292 291 290 289 288 287 287 288 289 290 291 291 291 291 292 293 294 295 295 296 295 293 292 292 292 292 292 294 294 293 293 295 296 296 298 302 304 303 299 295 295 295 296 298 298 299 301 304 306
238 246 254 262 270 277 283 288 290 291 292 294 299 303 306 308 308 308 309 310 311 312 313 313 312 312 312 311 310 309 308 306 305 303 301 299 297 295 294 293 291 290 289 289 288 288 289 290 290 291 291 291 292 292 293 294 294 294 294 293 292 292 292 293 294 295 296 298 298 298 299 298 297 299 301 301 298 294 293 295 295 294 293 293 294 297 301 304
242 250 258 265 273 279 285 289 290 291 295 300 304 306 308 309 309 310 312 313 315 315 315 315 315 315 315 315 314 313 311 309 307 305 303 300 298 296 295 294 292 291 290 289 289 289 289 290 290 290 290 291 291 292 292 293 293 293 292 291 290 292 294 295 297 299 300 300 300 301 302 301 300 301 303 301 298 295 294 294 294 293 293 292 293 296 299 300
247 254 262 269 276 282 286 288 290 294 300 304 307 308 309 310 311 313 316 317 317 317 316 316 316 317 319 320 319 318 316 313 310 307 305 303 301 299 297 296 294 292 291 290 289 289 290 290 290 290 290 291 291 291 292 292 291 291 291 290 290 291 293 294 296 298 299 299 299 299 300 299 299 301 302 301 299 298 297 296 295 295 295 295 296 297 298 298
250 257 265 272 278 283 286 288 293 300 304 307 308 308 309 312 315 317 318 319 319 318 317 318 320 321 323 324 324 323 320 316 312 309 307 305 303 302 300 298 296 294 292 290 289 289 290 291 291 291 290 290 291 291 291 291 291 291 291 291 290 290 290 291 293 294 296 297 297 297 296 296 296 298 300 299 299 299 298 297 297 297 297 297 298 298 298 298
253 260 268 275 280 283 286 292 300 304 307 308 308 309 312 316 318 319 320 320 320 319 319 322 324 325 327 327 328 327 324 320 315 311 308 306 305 303 301 299 297 295 293 292 290 289 290 290 291 291 291 291 291 290 290 291 291 291 291 291 291 291 290 289 290 291 293 295 296 297 296 294 293 295 296 296 297 297 297 296 297 296 296 296 297 298 297 297
256 264 271 276 281 284 290 298 304 306 308 308 309 312 316 319 320 321 322 321 320 321 323 325 326 327 329 329 329 329 327 323 318 313 310 307 305 303 302 300 298 296 295 293 292 291 290 290 290 290 290 290 290 290 290 290 290 291 291 291 292 292 291 290 290 290 291 293 296 297 298 296 294 294 295 294 294 295 295 296 297 296 296 297 298 298 298 299
259 267 273 277 282 289 297 304 307 308 309 310 312 316 319 320 321 322 322 321 322 324 325 327 328 329 330 330 330 330 328 326 322 317 312 308 306 304 302 301 299 298 296 294 293 292 291 291 291 290 290 289 289 289 289 289 289 290 290 290 291 291 291 291 291 292 292 294 295 297 299 298 296 296 296 295 295 296 296 298 299 298 298 299 300 300 300 301
263 269 274 280 287 296 303 306 308 309 310 312 316 319 320 322 323 322 321 322 324 326 327 328 329 330 331 331 331 330 329 327 324 321 316 312 309 306 304 302 300 299 297 295 294 293 292 292 291 290 290 290 289 288 288 289 289 289 289 289 290 290 290 290 291 291 291 294 295 296 299 298 297 297 297 296 297 298 298 300 301 300 300 300 300 301 301 302
265 271 277 285 294 301 305 308 309 310 312 316 319 320 322 323 323 322 323 325 326 327 328 329 330 331 331 332 331 330 329 327 325 323 320 316 312 309 306 305 303 301 299 297 296 294 293 292 292 291 290 290 290 289 288 289 288 288 288 289 290 290 290 290 291 290 290 292 292 294 298 297 295 296 296 297 298 298 298 300 301 300 300 300 300 301 301 301
267 274 282 291 299 303 306 309 310 312 316 319 320 322 323 323 323 323 324 326 326 327 328 329 330 331 332 332 331 331 329 328 326 324 322 319 316 312 308 306 304 303 301 299 298 296 295 294 293 292 291 291 291 290 290 290 289 289 288 289 290 291 291 291 292 292 292 293 291 292 296 295 292 293 295 297 298 296 297 299 300 299 299 299 300 300 300 301
271 279 288 296 301 305 307 310 312 315 319 320 322 324 324 323 323 324 326 326 327 328 328 329 330 331 332 332 331 331 330 330 328 327 324 321 318 315 312 308 305 303 302 301 300 299 298 297 295 294 293 293 292 292 291 291 290 290 289 289 290 290 291 293 294 294 294 294 293 293 297 294 291 291 295 298 298 297 299 302 301 300 299 299 300 300 301 301
275 284 292 298 303 306 309 312 314 318 321 323 324 324 324 324 325 326 326 326 327 328 328 329 330 331 331 332 331 332 332 332 332 331 329 327 324 320 317 313 309 305 303 302 301 300 300 300 299 298 297 296 296 296 295 295 294 292 292 291 291 291 292 293 294 294 295 296 295 296 300 295 290 292 297 299 299 300 303 304 302 300 300 300 301 301 302 302
280 288 294 300 304 308 311 314 316 320 323 325 325 325 324 325 326 326 326 327 328 328 328 329 329 330 331 332 332 333 334 335 336 336 335 334 332 329 325 321 317 312 308 305 302 301 300 301 301 301 301 300 300 300 300 300 299 297 296 295 294 294 295 296 297 296 297 298 297 299 304 294 289 293 299 299 299 302 305 304 301 300 300 301 301 302 302 302
283 290 296 302 306 310 314 316 318 322 325 326 326 325 325 326 327 326 326 327 327 327 327 328 328 330 331 332 333 333 335 336 338 339 339 338 338 336 334 332 328 324 320 315 310 306 303 302 302 303 303 304 304 305 305 305 304 302 301 300 299 300 300 300 301 301 301 300 299 301 301 291 289 294 296 295 298 303 305 302 301 300 301 301 302 303 303 303
286 292 299 305 309 313 316 318 320 323 326 327 326 325 326 327 327 326 326 326 327 327 327 327 328 329 330 332 333 333 334 336 337 339 339 340 340 340 339 338 336 334 332 328 323 318 313 308 306 305 304 304 306 307 307 307 306 305 303 301 301 302 302 302 303 303 303 302 303 304 299 293 294 294 293 294 300 304 303 301 301 302 302 302 303 303 303 304
290 297 302 307 311 315 318 319 321 324 326 327 327 326 327 327 327 326 325 325 326 326 325 326 327 328 329 331 332 332 333 334 336 337 337 338 339 339 339 338 339 338 337 336 333 330 326 319 315 313 309 307 307 307 308 309 307 306 305 303 303 304 304 304 305 304 303 304 307 305 299 300 303 297 295 299 304 304 303 302 303 303 302 303 303 303 303 303
294 299 305 309 312 316 319 320 322 324 326 327 327 327 327 327 327 326 324 324 325 325 325 325 326 327 328 330 331 332 332 332 334 334 334 335 335 336 335 335 336 335 335 336 336 336 334 328 324 323 319 315 314 312 312 314 313 312 309 307 306 306 306 306 307 306 304 306 310 305 300 305 307 299 299 305 307 305 305 304 305 305 304 304 303 303 303 304
297 301 306 309 313 317 320 321 322 324 326 326 327 326 327 327 327 325 323 323 323 323 324 324 324 325 326 328 330 331 331 331 331 331 332 331 332 332 332 331 331 330 329 330 331 333 334 330 329 329 327 322 319 317 317 317 317 317 314 310 309 309 309 309 310 308 306 308 310 305 303 308 306 299 301 306 306 305 305 305 305 305 304 304 304 304 305 305
298 302 306 309 314 318 320 321 323 324 325 326 326 326 326 326 326 325 322 321 321 322 323 323 324 324 324 326 328 328 328 328 327 328 328 328 328 328 328 327 326 326 325 324 324 325 327 326 325 327 328 323 319 319 319 319 320 319 316 313 312 312 312 313 312 310 307 308 309 306 307 310 306 302 305 307 305 305 305 305 305 305 304 303 303 304 305 305
300 303 305 309 314 318 320 322 322 323 324 325 325 325 325 325 325 324 322 320 319 320 321 322 323 323 323 324 325 325 325 325 324 324 325 324 324 324 325 324 323 323 322 321 320 319 320 320 318 320 323 320 316 316 317 318 320 319 315 313 313 313 313 313 313 311 309 309 309 308 308 310 306 305 307 307 306 306 306 306 306 305 303 302 303 305 305 305
301 303 306 310 315 318 320 321 321 322 323 324 324 324 323 324 324 323 321 320 319 319 320 320 321 321 321 321 322 322 323 322 322 322 321 321 321 321 321 321 320 320 319 318 317 316 316 316 314 314 317 316 313 313 313 314 317 315 312 312 311 311 311 311 312 311 308 308 308 307 307 306 304 305 307 307 306 306 307 307 306 305 302 301 303 304 304 304
302 303 306 311 315 318 320 320 321 321 322 323 323 323 322 322 322 322 321 319 319 319 319 319 319 319 318 318 319 319 320 320 320 319 319 319 318 318 318 318 317 317 316 315 315 314 313 313 312 311 313 312 311 310 310 312 314 311 308 308 309 309 309 309 310 309 307 307 306 305 305 304 303 303 304 304 304 304 305 305 304 303 301 301 302 303 303 303
302 303 307 311 315 317 319 319 320 320 321 321 321 321 321 320 320 321 320 319 319 319 319 319 319 318 318 317 317 318 318 319 319 319 318 318 317 317 317 317 316 316 315 315 314 313 312 312 311 310 310 310 308 307 307 310 310 308 305 304 305 305 305 306 306 305 304 304 304 304 304 303 302 302 302 301 301 302 303 303 302 300 299 300 302 303 303 303
Height
10689 10690 10691 10692 10693 10694 10694 10694 10694 10694 10694 10694 10694 10694 10693 10694 10694 10695 10695 10695 10696 10697 10697 10697 10697 10698 10697 10697 10697 10698 10698 10698 10698 10697 10697 10697 10696 10696 10696 10696 10696 10695 10695 10694 10694 10694 10694 10694 10693 10692 10691 10691 10691 10690 10690 10689 10688 10688 10687 10687 10687 10686 10687 10686 10686 10686 10685 10684 10683 10682 10682 10681 10680 10679 10679 10678 10677 10676 10676 10674 10673 10673 10672 10671 10671 10670 10669 10668
10687 10688 10689 10690 10690 10691 10690 10690 10691 10691 10691 10691 10691 10691 10691 10691 10691 10692 10692 10693 10693 10694 10694 10694 10694 10695 10694 10694 10694 10694 10695 10695 10694 10694 10694 10693 10693 10693 10692 10692 10692 10691 10691 10690 10690 10689 10689 10689 10688 10687 10686 10686 10685 10685 10684 10683 10682 10682 10681 10681 10681 10681 10681 10680 10680 10679 10679 10678 10677 10676 10676 10675 10674 10673 10673 10672 10671 10670 10669 10668 10668 10667 10665 10665 10664 10663 10662 10661
10685 10685 10686 10687 10688 10688 10688 10687 10687 10688 10688 10688 10688 10688 10688 10688 10689 10689 10689 10689 10690 10690 10691 10691 10691 10691 10692 10692 10691 10691 10691 10691 10691 10691 10691 10690 10689 10689 10689 10688 10688 10687 10686 10686 10686 10685 10685 10684 10683 10682 10681 10680 10680 10679 10678 10678 10677 10677 10676 10676 10675 10675 10675 10675 10674 10673 10672 10671 10670 10669 10669 10668 10667 10666 10666 10664 10664 10663 10662 10661 10660 10659 10657 10657 10656 10655 10655 10653
10682 10683 10684 10685 10685 10685 10685 10685 10684 10684 10684 10684 10685 10685 10686 10686 10686 10686 10686 10686 10687 10687 10687 10687 10688 10688 10688 10688 10688 10688 10688 10688 10688 10687 10687 10686 10685 10685 10685 10684 10684 10683 10682 10682 10681 10681 10680 10680 10678 10677 10676 10676 10675 10674 10673 10672 10672 10671 10670 10670 10669 10669 10668 10668 10668 10667 10666 10665 10664 10663 10661 10660 10660 10659 10658 10657 10657 10656 10654 10653 10653 10651 10649 10649 10648 10647 10647 10645
10680 10681 10681 10682 10682 10683 10682 10682 10682 10682 10681 10682 10682 10683 10683 10683 10683 10683 10683 10683 10684 10683 10683 10684 10684 10685 10685 10685 10685 10684 10685 10684 10684 10683 10683 10682 10682 10681 10680 10680 10679 10678 10678 10677 10677 10676 10675 10675 10674 10672 10671 10670 10669 10669 10668 10667 10666 10666 10664 10663 10663 10662 10661 10661 10660 10659 10658 10658 10656 10655 10654 10653 10652 10651 10650 10649 10649 10647 10645 10645 10644 10643 10641 10641 10640 10639 10638 10637
10677 10678 10679 10679 10680 10680 10680 10680 10680 10680 10679 10680 10680 10680 10680 10680 10680 10680 10680 10680 10680 10680 10680 10680 10680 10681 10681 10681 10681 10681 10681 10681 10680 10679 10679 10678 10678 10677 10677 10676 10675 10674 10673 10672 10672 10672 10670 10670 10669 10668 10667 10665 10664 10663 10662 10661 10661 10660 10658 10656 10656 10655 10654 10653 10653 10652 10650 10650 10648 10647 10646 10645 10644 10643 10642 10641 10640 10638 10637 10636 10636 10635 10633 10632 10631 10629 10629 10628
10675 10676 10677 10677 10677 10677 10677 10678 10678 10678 10678 10678 10678 10678 10678 10678 10678 10678 10678 10677 10677 10677 10677 10676 10677 10677 10677 10678 10678 10678 10679 10678 10677 10676 10675 10675 10674 10673 10673 10672 10671 10670 10669 10668 10667 10666 10666 10665 10664 10663 10662 10660 10659 10658 10657 10655 10654 10653 10651 10650 10649 10648 10647 10645 10644 10644 10642 10641 10640 10639 10638 10637 10636 10634 10633 10632 10630 10629 10628 10628 10627 10625 10624 10623 10621 10620 10619 10618
10672 10673 10674 10675 10675 10675 10675 10675 10675 10676 10676 10676 10676 10676 10676 10675 10675 10675 10675 10675 10674 10674 10674 10674 10674 10674 10674 10674 10675 10675 10676 10675 10674 10673 10672 10671 10670 10669 10668 10668 10667 10666 10665 10663 10662 10661 10660 10659 10658 10657 10656 10654 10652 10651 10650 10649 10648 10646 10644 10643 10642 10641 10639 10637 10636 10635 10634 10633 10632 10631 10630 10629 10628 10626 10625 10622 10620 10620 10620 10619 10617 10616 10614 10613 10612 10610 10609 10608
10670 10671 10672 10672 10673 10673 10673 10673 10673 10673 10674 10675 10675 10674 10674 10673 10672 10672 10671 10671 10671 10671 10671 10671 10671 10671 10671 10671 10671 10671 10671 10671 10670 10669 10668 10667 10666 10664 10663 10663 10662 10660 10659 10658 10657 10656 10654 10653 10652 10651 10649 10647 10645 10644 10643 10642 10640 10638 10638 10637 10635 10633 10631 10630 10629 10627 10626 10625 10624 10623 10622 10621 10619 10618 10615 10611 10611 10612 10610 10609 10607 10606 10605 10603 10602 10600 10599 10598
10668 10669 10669 10670 10671 10671 10671 10671 10671 10672 10672 10672 10673 10672 10672 10671 10670 10670 10669 10668 10668 10668 10668 10668 10667 10667 10667 10667 10667 10667 10667 10666 10665 10664 10663 10662 10661 10659 10658 10657 10655 10654 10653 10652 10651 10649 10648 10646 10645 10644 10642 10640 10638 10637 10635 10634 10633 10631 10630 10629 10627 10626 10624 10623 10621 10619 10618 10617 10615 10614 10613 10612 10610 10609 10605 10600 10601 10602 10599 10598 10597 10596 10594 10592 10591 10589 10588 10587
10666 10667 10667 10667 10668 10669 10670 10670 10670 10670 10670 10670 10670 10670 10669 10669 10668 10667 10667 10666 10665 10665 10664 10664 10664 10663 10663 10663 10662 10662 10661 10661 10660 10659 10658 10657 10655 10654 10652 10651 10649 10648 10647 10645 10644 10643 10641 10639 10638 10636 10635 10633 10631 10630 10629 10627 10626 10625 10623 10621 10620 10618 10617 10615 10613 10611 10610 10608 10606 10604 10605 10603 10600 10598 10594 10590 10591 10591 10588 10587 10586 10584 10583 10581 10580 10579 10577 10576
10665 10665 10665 10665 10666 10667 10668 10668 10668 10669 10668 10668 10667 10667 10666 10666 10665 10665 10664 10663 10662 10662 10661 10660 10660 10659 10659 10658 10658 10657 10656 10656 10655 10654 10653 10652 10650 10649 10647 10645 10644 10642 10640 10639 10637 10636 10634 10632 10631 10629 10627 10626 10624 10623 10621 10620 10618 10617 10614 10613 10612 10610 10609 10606 10603 10602 10600 10599 10595 10595 10596 10594 10590 10586 10582 10581 10581 10580 10578 10577 10575 10574 10572 10571 10570 10568 10567 10565
10662 10663 10663 10664 10665 10666 10666 10666 10667 10666 10666 10666 10665 10664 10664 10663 10663 10662 10661 10660 10659 10658 10658 10657 10656 10655 10655 10654 10653 10652 10652 10651 10650 10649 10647 10646 10645 10643 10641 10640 10638 10636 10634 10632 10631 10629 10627 10626 10624 10622 10620 10618 10617 10615 10613 10611 10609 10607 10605 10604 10603 10601 10600 10596 10594 10593 10591 10589 10585 10585 10587 10583 10581 10576 10570 10572 10572 10570 10568 10566 10565 10563 10561 10560 10559 10558 10556 10554
10660 10661 10662 10663 10664 10664 10665 10665 10665 10664 10664 10664 10663 10662 10661 10661 10660 10659 10658 10657 10656 10655 10654 10653 10652 10651 10650 10650 10648 10647 10647 10646 10645 10643 10642 10640 10639 10637 10635 10634 10632 10630 10628 10626 10624 10622 10620 10618 10617 10615 10612 10610 10608 10606 10605 10603 10601 10598 10596 10596 10593 10592 10592 10587 10585 10585 10582 10580 10577 10576 10577 10573 10571 10566 10562 10563 10562 10560 10558 10556 10554 10552 10551 10550 10548 10546 10544 10543
10659 10660 10661 10662 10663 10663 10663 10663 10663 10662 10662 10662 10661 10660 10660 10659 10658 10657 10656 10654 10653 10652 10651 10650 10649 10648 10647 10646 10644 10643 10642 10641 10640 10638 10636 10635 10633 10631 10629 10628 10626 10624 10622 10619 10617 10615 10613 10611 10609 10607 10605 10603 10601 10599 10597 10595 10593 10590 10588 10588 10585 10582 10584 10580 10576 10576 10573 10571 10568 10567 10568 10564 10561 10558 10555 10555 10552 10550 10549 10546 10545 10543 10541 10540 10537 10536 10534 10533
10657 10659 10660 10661 10661 10661 10661 10661 10661 10660 10660 10660 10659 10659 10658 10657 10656 10655 10653 10652 10651 10650 10648 10647 10646 10644 10643 10642 10641 10639 10638 10637 10635 10634 10632 10630 10628 10626 10624 10622 10620 10618 10615 10613 10610 10608 10606 10604 10602 10600 10598 10595 10593 10592 10590 10588 10585 10582 10580 10580 10577 10573 10575 10573 10568 10566 10564 10563 10559 10558 10558 10554 10552 10550 10547 10546 10544 10542 10540 10537 10537 10535 10533 10531 10529 10527 10525 10523
10656 10657 10658 10659 10659 10659 10659 10659 10659 10659 10658 10658 10657 10657 10656 10655 10654 10652 10651 10650 10648 10647 10646 10644 10643 10641 10640 10638 10637 10635 10634 10633 10631 10629 10627 10625 10623 10620 10618 10616 10613 10611 10609 10606 10604 10601 10599 10597 10595 10592 10590 10588 10586 10584 10582 10581 10578 10575 10572 10571 10570 10565 10564 10564 10560 10557 10556 10555 10552 10550 10549 10545 10544 10544 10540 10539 10537 10534 10532 10531 10530 10527 10524 10523 10521 10518 10516 10515
10655 10656 10656 10657 10657 10657 10657 10657 10657 10657 10657 10656 10656 10655 10654 10653 10652 10650 10649 10647 10645 10644 10642 10641 10639 10638 10636 10634 10633 10631 10629 10628 10626 10624 10622 10620 10618 10615 10612 10609 10606 10604 10602 10599 10597 10594 10592 10589 10587 10585 10583 10580 10578 10576 10574 10573 10570 10568 10565 10562 10561 10559 10556 10556 10554 10550 10549 10548 10545 10543 10543 10537 10534 10537 10535 10532 10531 10527 10525 10524 10522 10519 10517 10514 10512 10509 10507 10506
10653 10654 10654 10654 10655 10655 10656 10656 10656 10655 10655 10655 10654 10653 10652 10651 10649 10648 10646 10644 10642 10641 10639 10637 10635 10633 10631 10630 10628 10626 10624 10623 10621 10619 10616 10614 10612 10609 10606 10603 10600 10597 10594 10592 10590 10587 10585 10582 10580 10578 10575 10573 10571 10569 10567 10565 10563 10561 10559 10556 10554 10552 10550 10548 10546 10545 10543 10542 10538 10537 10537 10530 10525 10529 10530 10525 10523 10521 10518 10516 10514 10511 10509 10506 10503 10501 10499 10496
10651 10652 10652 10653 10653 10654 10654 10654 10654 10654 10653 10653 10652 10651 10650 10648 10646 10645 10643 10641 10639 10637 10635 10633 10631 10629 10627 10625 10623 10621 10619 10617 10615 10613 10610 10608 10606 10603 10600 10597 10594 10590 10587 10585 10582 10580 10578 10575 10573 10571 10569 10566 10564 10562 10560 10558 10557 10555 10553 10551 10548 10546 10545 10542 10540 10539 10537 10536 10532 10530 10530 10523 10519 10522 10524 10520 10515 10512 10510 10507 10505 10503 10500 10498 10495 10492 10489 10486
10650 10650 10651 10651 10652 10652 10652 10653 10652 10652 10651 10651 10650 10648 10647 10645 10644 10642 10640 10638 10636 10634 10632 10630 10628 10626 10623 10621 10619 10617 10614 10611 10608 10606 10603 10601 10599 10596 10594 10591 10588 10584 10581 10578 10575 10573 10571 10568 10566 10565 10563 10560 10558 10556 10555 10552 10550 10549 10546 10545 10542 10540 10538 10536 10534 10532 10530 10529 10526 10524 10521 10515 10515 10517 10516 10513 10507 10502 10502 10499 10497 10495 10492 10489 10486 10483 10481 10478
10648 10649 10649 10650 10650 10651 10651 10651 10651 10650 10649 10648 10647 10646 10644 10643 10641 10639 10637 10635 10633 10631 10629 10627 10624 10622 10619 10617 10614 10612 10609 10606 10603 10600 10597 10594 10591 10589 10586 10584 10581 10578 10575 10572 10569 10566 10564 10562 10560 10559 10557 10555 10553 10551 10549 10547 10545 10543 10541 10539 10536 10534 10532 10529 10528 10525 10524 10522 10519 10517 10512 10508 10511 10512 10508 10504 10499 10496 10495 10492 10490 10487 10484 10481 10478 10475 10473 10470
10647 10648 10648 10649 10649 10649 10649 10649 10649 10648 10647 10646 10645 10643 10642 10640 10638 10636 10634 10632 10630 10628 10626 10623 10620 10618 10615 10612 10609 10606 10603 10600 10597 10594 10591 10588 10585 10582 10579 10577 10574 10571 10569 10566 10564 10561 10559 10557 10555 10553 10552 10550 10548 10546 10544 10542 10539 10537 10535 10533 10531 10528 10526 10524 10521 10519 10517 10515 10513 10509 10504 10503 10506 10506 10501 10495 10491 10489 10487 10485 10483 10479 10476 10473 10470 10468 10466 10463
10646 10646 10647 10647 10648 10648 10648 10647 10647 10646 10645 10644 10642 10641 10639 10637 10636 10634 10632 10630 10627 10625 10623 10620 10617 10614 10611 10607 10604 10600 10597 10594 10591 10588 10584 10581 10578 10576 10573 10570 10567 10565 10563 10561 10559 10557 10554 10552 10551 10549 10547 10545 10543 10541 10539 10537 10534 10532 10530 10527 10525 10523 10520 10518 10514 10512 10510 10508 10507 10502 10496 10497 10501 10499 10495 10490 10484 10483 10480 10478 10476 10473 10470 10467 10464 10462 10460 10457
10645 10645 10646 10646 10646 10647 10646 10646 10645 10644 10643 10642 10640 10638 10637 10635 10634 10631 10629 10627 10624 10622 10619 10616 10613 10609 10606 10603 10598 10595 10592 10588 10585 10582 10578 10575 10572 10569 10566 10564 10562 10560 10558 10556 10554 10552 10550 10548 10546 10544 10542 10540 10538 10536 10534 10532 10529 10527 10525 10522 10520 10517 10514 10512 10509 10506 10504 10502 10501 10497 10490 10490 10495 10493 10489 10485 10480 10477 10475 10473 10471 10468 10465 10462 10460 10458 10456 10453
10643 10644 10645 10645 10645 10645 10645 10644 10643 10642 10641 10640 10638 10636 10635 10633 10631 10629 10626 10624 10621 10618 10615 10611 10608 10604 10601 10597 10593 10590 10586 10583 10580 10576 10573 10570 10567 10564 10561 10559 10557 10555 10553 10551 10549 10547 10545 10544 10542 10539 10537 10535 10533 10531 10529 10527 10525 10522 10520 10517 10514 10512 10508 10506 10503 10500 10499 10497 10494 10493 10488 10484 10487 10489 10486 10482 10477 10473 10470 10467 10465 10462 10460 10457 10455 10453 10451 10449
10642 10643 10643 10643 10644 10643 10643 10642 10641 10640 10639 10637 10636 10634 10632 10630 10628 10626 10623 10621 10617 10614 10610 10607 10603 10599 10595 10592 10588 10584 10581 10577 10574 10571 10568 10565 10561 10559 10556 10554 10553 10551 10549 10547 10545 10543 10541 10539 10537 10535 10533 10531 10529 10527 10524 10522 10520 10517 10515 10512 10509 10506 10503 10501 10498 10495 10493 10492 10490 10489 10487 10481 10479 10483 10482 10478 10475 10471 10466 10462 10458 10456 10454 10451 10449 10447 10445 10443
10641 10642 10642 10642 10642 10642 10641 10641 10640 10638 10637 10635 10634 10632 10630 10628 10625 10623 10620 10617 10613 10610 10606 10602 10598 10594 10590 10586 10583 10579 10576 10572 10569 10565 10562 10559 10556 10554 10552 10550 10548 10546 10544 10543 10541 10539 10537 10535 10533 10531 10529 10527 10524 10522 10520 10517 10515 10513 10510 10508 10504 10502 10499 10496 10494 10491 10488 10487 10486 10484 10483 10479 10474 10477 10477 10473 10471 10468 10463 10459 10455 10452 10449 10447 10444 10441 10439 10437
10640 10641 10641 10641 10641 10640 10640 10639 10638 10636 10635 10633 10632 10630 10627 10625 10622 10619 10617 10613 10609 10605 10601 10597 10593 10589 10585 10582 10578 10574 10570 10567 10563 10560 10557 10554 10552 10550 10548 10546 10544 10542 10540 10538 10537 10535 10533 10530 10528 10526 10524 10522 10520 10517 10515 10513 10511 10509 10506 10503 10500 10497 10494 10492 10489 10487 10483 10481 10480 10479 10479 10476 10471 10471 10473 10470 10467 10464 10460 10457 10454 10450 10447 10444 10440 10437 10434 10431
10639 10640 10640 10640 10639 10639 10638 10637 10636 10634 10633 10631 10629 10627 10625 10622 10619 10616 10613 10609 10605 10601 10597 10593 10589 10585 10581 10577 10573 10569 10565 10561 10558 10555 10552 10550 10548 10546 10544 10541 10539 10538 10536 10534 10532 10530 10528 10526 10524 10522 10520 10517 10515 10513 10511 10509 10507 10505 10502 10500 10496 10493 10490 10487 10484 10482 10479 10475 10473 10472 10471 10470 10467 10465 10467 10466 10463 10461 10457 10453 10451 10448 10444 10441 10436 10433 10430 10428
10638 10639 10639 10639 10638 10637 10637 10635 10634 10633 10631 10629 10627 10625 10622 10619 10616 10612 10609 10605 10601 10597 10593 10589 10585 10581 10577 10572 10568 10564 10560 10556 10553 10551 10548 10546 10544 10542 10539 10537 10535 10533 10532 10530 10528 10526 10524 10522 10520 10518 10516 10513 10511 10509 10507 10505 10503 10501 10499 10496 10493 10490 10486 10482 10479 10476 10473 10470 10467 10465 10464 10462 10460 10460 10460 10459 10458 10456 10453 10449 10446 10443 10440 10436 10433 10429 10426 10423
10638 10638 10638 10637 10637 10636 10635 10634 10632 10631 10629 10627 10624 10622 10619 10616 10612 10609 10605 10601 10597 10593 10589 10585 10581 10577 10573 10568 10564 10560 10556 10552 10549 10547 10544 10542 10540 10538 10536 10533 10531 10529 10528 10526 10524 10522 10519 10518 10516 10514 10512 10509 10507 10505 10503 10500 10498 10496 10494 10492 10489 10487 10483 10478 10475 10472 10468 10464 10461 10459 10458 10455 10453 10454 10453 10451 10450 10449 10447 10444 10441 10437 10434 10430 10427 10425 10421 10416
10637 10637 10637 10636 10635 10634 10633 10632 10630 10629 10627 10624 10622 10619 10616 10612 10609 10605 10601 10597 10593 10590 10586 10582 10577 10573 10569 10564 10560 10556 10552 10549 10546 10543 10541 10538 10536 10534 10532 10529 10527 10526 10524 10522 10520 10518 10515 10513 10511 10509 10507 10505 10502 10500 10498 10495 10492 10491 10489 10487 10485 10483 10481 10476 10472 10469 10465 10460 10455 10453 10452 10449 10446 10447 10447 10444 10441 10441 10440 10437 10434 10430 10427 10424 10420 10418 10414 10410
10636 10636 10635 10635 10634 10633 10632 10630 10628 10626 10624 10622 10619 10616 10613 10609 10605 10601 10598 10594 10590 10586 10582 10578 10574 10569 10565 10561 10556 10552 10548 10545 10542 10539 10537 10535 10532 10530 10528 10525 10523 10521 10519 10518 10516 10514 10511 10508 10506 10504 10502 10499 10497 10495 10493 10490 10487 10485 10483 10482 10480 10478 10476 10474 10470 10467 10464 10459 10451 10446 10445 10443 10441 10441 10442 10439 10435 10433 10432 10430 10427 10424 10420 10418 10415 10411 10408 10403
10634 10634 10634 10633 10632 10631 10630 10628 10626 10624 10622 10619 10616 10613 10609 10606 10602 10598 10595 10591 10587 10583 10579 10575 10570 10566 10562 10557 10553 10549 10545 10542 10539 10536 10533 10531 10529 10526 10524 10521 10519 10517 10515 10513 10511 10509 10507 10505 10502 10500 10497 10494 10492 10489 10488 10486 10482 10479 10477 10475 10474 10472 10471 10469 10466 10463 10462 10460 10451 10442 10436 10432 10431 10434 10435 10433 10430 10426 10424 10422 10420 10416 10413 10410 10407 10404 10400 10396
10633 10633 10632 10631 10630 10629 10627 10626 10624 10621 10619 10616 10613 10610 10606 10603 10599 10595 10592 10588 10584 10580 10576 10572 10567 10563 10559 10555 10551 10546 10543 10539 10535 10532 10530 10527 10525 10522 10520 10518 10515 10513 10511 10508 10506 10504 10502 10500 10498 10495 10492 10490 10487 10484 10482 10480 10478 10474 10471 10469 10468 10467 10464 10463 10462 10459 10457 10457 10452 10442 10433 10422 10419 10424 10426 10424 10423 10419 10416 10414 10411 10407 10403 10401 10399 10395 10392 10388
10632 10631 10630 10629 10628 10627 10625 10623 10621 10619 10616 10613 10610 10607 10603 10600 10596 10592 10589 10585 10581 10577 10573 10569 10565 10561 10556 10552 10548 10544 10540 10536 10532 10529 10526 10523 10521 10518 10515 10513 10511 10508 10506 10503 10502 10500 10497 10495 10493 10490 10487 10485 10483 10479 10476 10474 10472 10469 10466 10463 10462 10462 10458 10456 10456 10454 10452 10453 10450 10443 10434 10418 10407 10412 10415 10414 10415 10412 10408 10406 10403 10397 10393 10392 10390 10386 10383 10379
10630 10629 10628 10627 10626 10625 10623 10621 10619 10616 10613 10610 10607 10604 10600 10597 10593 10589 10585 10581 10577 10574 10570 10566 10562 10558 10554 10550 10546 10542 10537 10533 10529 10525 10522 10519 10516 10513 10511 10508 10506 10504 10501 10499 10497 10495 10493 10490 10487 10485 10483 10480 10478 10475 10472 10469 10467 10464 10461 10457 10455 10455 10453 10450 10450 10448 10446 10449 10447 10443 10437 10417 10399 10400 10404 10404 10406 10405 10402 10400 10395 10389 10384 10382 10381 10378 10374 10371
10628 10628 10627 10626 10624 10623 10621 10619 10616 10614 10611 10608 10604 10601 10597 10594 10590 10586 10582 10578 10575 10571 10567 10564 10560 10556 10552 10548 10544 10539 10535 10531 10527 10523 10519 10515 10512 10509 10507 10504 10501 10499 10496 10494 10491 10489 10488 10486 10482 10479 10477 10475 10473 10470 10468 10464 10460 10458 10455 10451 10449 10447 10446 10444 10443 10440 10439 10441 10440 10441 10440 10419 10394 10390 10394 10396 10397 10396 10396 10395 10389 10382 10376 10373 10372 10369 10365 10362
10627 10626 10625 10624 10622 10621 10619 10616 10614 10611 10608 10605 10601 10598 10594 10591 10588 10583 10580 10576 10572 10569 10565 10561 10557 10554 10550 10546 10541 10537 10533 10529 10525 10521 10517 10513 10510 10506 10503 10500 10498 10495 10492 10490 10487 10484 10482 10481 10477 10474 10471 10469 10467 10465 10462 10459 10455 10451 10448 10445 10443 10440 10439 10438 10437 10433 10431 10432 10431 10435 10440 10419 10388 10381 10387 10388 10387 10386 10387 10387 10380 10372 10367 10364 10362 10359 10356 10352
10625 10624 10623 10622 10620 10619 10616 10614 10611 10608 10605 10602 10598 10595 10592 10588 10584 10580 10577 10573 10570 10566 10562 10559 10555 10551 10547 10543 10539 10535 10531 10527 10523 10519 10515 10511 10508 10504 10501 10497 10494 10491 10488 10485 10483 10480 10477 10476 10473 10468 10465 10463 10461 10459 10455 10453 10450 10445 10441 10439 10436 10433 10431 10431 10433 10429 10424 10423 10421 10425 10435 10418 10383 10374 10381 10379 10376 10376 10377 10376 10370 10363 10358 10355 10353 10349 10346 10343
10623 10622 10621 10620 10618 10616 10614 10611 10608 10605 10602 10599 10595 10592 10589 10585 10581 10578 10574 10571 10567 10564 10560 10556 10553 10549 10545 10541 10537 10532 10528 10524 10520 10516 10512 10508 10505 10501 10498 10495 10491 10488 10485 10481 10479 10476 10473 10471 10468 10464 10459 10456 10455 10453 10450 10446 10442 10438 10433 10430 10428 10428 10425 10424 10425 10424 10420 10416 10411 10415 10427 10414 10384 10373 10376 10371 10367 10369 10369 10366 10360 10355 10350 10346 10344 10341 10337 10333
10621 10620 10619 10617 10616 10613 10611 10608 10605 10603 10599 10596 10593 10589 10586 10582 10579 10575 10571 10568 10565 10561 10558 10554 10550 10546 10542 10538 10534 10530 10525 10521 10517 10513 10510 10505 10502 10499 10495 10492 10488 10485 10482 10478 10475 10472 10468 10466 10464 10460 10456 10451 10449 10446 10444 10440 10435 10430 10425 10420 10419 10419 10418 10416 10415 10415 10414 10409 10404 10406 10414 10407 10387 10376 10372 10366 10363 10364 10362 10358 10352 10347 10343 10338 10335 10332 10328 10324
10619 10618 10617 10615 10613 10611 10608 10605 10603 10600 10596 10593 10590 10587 10583 10579 10576 10572 10569 10565 10562 10559 10555 10551 10547 10544 10540 10536 10532 10527 10523 10519 10515 10511 10507 10503 10500 10496 10492 10489 10486 10482 10479 10475 10472 10468 10464 10461 10460 10458 10453 10448 10445 10442 10439 10436 10430 10424 10419 10414 10412 10411 10410 10409 10407 10406 10406 10402 10398 10395 10397 10397 10388 10375 10367 10363 10362 10361 10355 10349 10344 10340 10335 10331 10328 10324 10319 10315
10617 10616 10615 10613 10611 10608 10606 10603 10600 10597 10594 10590 10587 10584 10580 10577 10573 10569 10566 10563 10560 10556 10552 10549 10545 10541 10537 10533 10529 10525 10521 10517 10513 10509 10505 10501 10497 10494 10490 10487 10483 10480 10476 10473 10469 10465 10461 10457 10454 10453 10449 10445 10442 10439 10435 10432 10427 10421 10415 10408 10406 10405 10403 10402 10400 10397 10396 10397 10395 10385 10380 10388 10384 10365 10356 10359 10359 10355 10349 10342 10337 10331 10326 10323 10321 10317 10312 10307
10615 10614 10612 10610 10608 10606 10603 10600 10597 10594 10591 10587 10584 10581 10577 10574 10570 10567 10563 10560 10557 10553 10550 10546 10542 10538 10534 10530 10526 10522 10518 10514 10511 10507 10503 10499 10495 10492 10488 10484 10481 10477 10474 10471 10468 10464 10459 10454 10450 10449 10444 10439 10436 10433 10430 10427 10421 10415 10409 10402 10401 10399 10397 10395 10393 10389 10385 10389 10393 10379 10369 10379 10379 10358 10348 10352 10350 10346 10341 10335 10329 10322 10316 10312 10310 10308 10304 10299
10613 10612 10610 10608 10606 10603 10600 10597 10594 10591 10588 10585 10581 10578 10574 10571 10567 10564 10561 10557 10554 10550 10547 10543 10539 10535 10531 10527 10524 10519 10515 10511 10507 10504 10500 10496 10493 10489 10485 10482 10478 10475 10471 10468 10465 10463 10459 10453 10448 10446 10441 10436 10432 10428 10426 10423 10418 10411 10402 10395 10394 10393 10391 10389 10386 10381 10376 10379 10384 10375 10363 10368 10368 10355 10348 10347 10342 10339 10334 10328 10322 10315 10307 10302 10299 10297 10293 10288
10611 10610 10608 10606 10603 10601 10598 10594 10591 10588 10585 10582 10578 10575 10571 10568 10564 10561 10557 10554 10551 10548 10544 10539 10536 10532 10527 10524 10521 10517 10513 10508 10504 10500 10497 10493 10490 10486 10482 10478 10474 10471 10467 10464 10461 10459 10457 10452 10447 10444 10439 10433 10428 10426 10422 10419 10415 10409 10398 10389 10387 10387 10385 10383 10379 10373 10368 10369 10372 10368 10362 10358 10352 10345 10345 10340 10333 10330 10327 10321 10315 10308 10299 10293 10290 10287 10284 10278
10609 10607 10605 10603 10600 10598 10594 10591 10588 10585 10582 10579 10575 10572 10568 10565 10562 10558 10555 10551 10547 10544 10541 10536 10532 10528 10524 10520 10517 10514 10511 10506 10502 10498 10494 10489 10485 10482 10478 10474 10470 10467 10463 10459 10455 10454 10453 10450 10444 10442 10439 10430 10424 10422 10419 10416 10413 10406 10395 10385 10380 10378 10377 10376 10372 10365 10359 10359 10360 10357 10357 10354 10341 10334 10336 10332 10323 10319 10317 10312 10306 10298 10289 10283 10281 10279 10274 10268
10607 10605 10602 10600 10597 10595 10591 10588 10585 10582 10579 10575 10572 10569 10565 10562 10558 10555 10551 10548 10544 10540 10537 10533 10529 10525 10520 10517 10513 10510 10507 10503 10499 10495 10491 10486 10482 10478 10475 10470 10466 10462 10458 10454 10450 10447 10446 10445 10441 10438 10437 10429 10421 10418 10415 10412 10409 10403 10393 10383 10376 10371 10369 10368 10365 10358 10351 10350 10350 10347 10347 10347 10337 10328 10327 10323 10315 10310 10307 10301 10296 10288 10277 10271 10272 10270 10264 10257
10604 10602 10600 10597 10594 10591 10588 10585 10582 10579 10576 10572 10569 10565 10562 10558 10555 10552 10547 10544 10540 10537 10533 10530 10526 10522 10517 10513 10509 10506 10503 10499 10495 10491 10487 10483 10478 10474 10470 10466 10462 10458 10453 10449 10445 10440 10437 10437 10435 10432 10432 10427 10419 10414 10411 10408 10404 10398 10389 10381 10373 10365 10362 10361 10358 10351 10343 10340 10340 10338 10336 10334 10329 10324 10321 10315 10308 10304 10299 10293 10287 10279 10267 10261 10261 10260 10254 10247
10601 10599 10597 10594 10591 10588 10585 10582 10579 10576 10572 10569 10565 10562 10558 10555 10551 10548 10544 10539 10536 10533 10529 10526 10522 10518 10514 10509 10505 10501 10498 10494 10491 10486 10482 10478 10473 10469 10464 10460 10456 10452 10447 10442 10438 10434 10430 10428 10427 10424 10425 10423 10415 10409 10407 10405 10400 10392 10383 10376 10369 10361 10357 10356 10353 10345 10337 10331 10328 10328 10326 10321 10317 10315 10312 10307 10301 10296 10290 10284 10276 10267 10259 10254 10251 10247 10242 10237